Location: Katowice
(50.2670°N, 19.0170°E)
Time: 13:33:41
(UTC+02:00)

ISS - Visible Passes

Search period start: 20 April 2024 00:00
Search period end: 30 April 2024 00:00
Orbit: 412 x 418 km, 51.6° (Epoch: 20 April)

Date Brightness Start Highest point End Pass type
(mag) Time Alt. Az. Time Alt. Az. Time Alt. Az.
21 Apr -1.0 04:48:12 10° SSE 04:49:12 11° SE 04:50:12 10° ESE visible
23 Apr -1.9 04:44:58 10° SSW 04:47:41 23° SE 04:50:23 10° E visible
24 Apr -1.5 03:57:12 12° S 03:58:52 16° SE 04:00:57 10° E visible
25 Apr -3.1 04:42:55 10° SW 04:46:06 44° SSE 04:49:18 10° E visible
26 Apr -2.6 03:55:35 21° SSW 03:57:07 31° SSE 04:00:06 10° E visible
27 Apr -2.0 03:08:12 21° SE 03:08:12 21° SE 03:10:43 10° E visible
27 Apr -3.8 04:41:08 10° WSW 04:44:28 78° SSE 04:47:48 10° ENE visible
28 Apr -1.0 02:20:44 11° ESE 02:20:44 11° ESE 02:20:59 10° ESE visible
28 Apr -3.6 03:53:34 25° SW 03:55:18 58° SSE 03:58:36 10° ENE visible
29 Apr -3.2 03:06:01 40° SSE 03:06:08 40° SSE 03:09:17 10° E visible
29 Apr -3.6 04:39:23 10° W 04:42:43 75° N 04:46:03 10° ENE visible
